FW9852 Weather Reports


Display with metric or nautical units.
time (UTC)temp
F
wind
direction
speed
MPH
gust
MPH
rain 1hr
in
rain 24hr
in
rain mn
in
humidity
%
barometer
mb
20260505041554 50 256 6.0 10.0 0.00 0.00 0.00 88 1006.7
20260505040105 50 251 6.0 10.0 0.00 0.00 0.00 89 1006.6
20260505034554 50 273 4.0 10.0 0.00 0.00 0.00 90 1006.4
20260505033057 49 259 3.0 8.0 0.00 0.00 0.00 90 1006.6
20260505031601 49 258 5.0 10.0 0.00 0.00 0.00 90 1006.5
20260505030100 49 214 5.0 12.0 0.00 0.00 0.00 90 1006.6
20260505024555 49 265 4.0 9.0 0.00 0.00 0.00 89 1006.5
20260505023056 49 246 0.0 3.0 0.00 0.00 0.00 89 1006.6
20260505021557 49 254 2.0 6.0 0.00 0.00 0.00 89 1006.5
20260505020105 49 266 3.0 7.0 0.00 0.00 0.00 90 1006.6
20260505014608 49 271 3.0 10.0 0.00 0.00 0.00 90 1006.6
20260505013105 49 265 6.0 12.0 0.00 0.00 0.00 90 1006.6
20260505011608 49 269 6.0 10.0 0.00 0.00 0.00 89 1006.6
20260505010100 49 248 3.0 8.0 0.00 0.00 0.00 89 1006.6
20260505004601 49 269 3.0 8.0 0.00 0.00 0.00 89 1006.7
20260505003058 49 273 7.0 13.0 0.00 0.00 0.00 88 1006.7
20260505001601 49 244 3.0 8.0 0.00 0.00 0.00 88 1006.6
20260505000101 49 278 4.0 8.0 0.00 0.00 0.00 89 1006.5
20260504234558 48 257 2.0 6.0 0.00 0.00 0.00 88 1006.6
20260504233056 49 273 1.0 6.0 0.00 0.00 0.00 86 1006.6
20260504231558 50 280 3.0 8.0 0.00 0.00 0.00 85 1006.6
20260504230059 50 294 3.0 6.0 0.00 0.00 0.00 86 1006.6
20260504224558 51 293 3.0 8.0 0.00 0.00 0.00 84 1006.6
20260504223055 51 287 5.0 9.0 0.00 0.00 0.00 84 1006.6
20260504221556 51 282 3.0 11.0 0.00 0.00 0.00 84 1006.6
20260504220101 52 276 5.0 10.0 0.00 0.00 0.00 84 1006.6
20260504214604 52 290 6.0 10.0 0.00 0.00 0.00 83 1006.6
20260504213058 52 270 7.0 12.0 0.00 0.00 0.00 83 1006.4
20260504211556 52 213 7.0 12.0 0.00 0.00 0.00 82 1006.3
20260504210105 52 246 3.0 7.0 0.00 0.00 0.00 81 1006.2
20260504204611 53 259 5.0 9.0 0.00 0.00 0.00 81 1005.9
20260504203134 53 238 3.0 8.0 0.00 0.00 0.00 79 1006.0
20260504201559 53 257 2.0 8.0 0.00 0.00 0.00 79 1006.1
20260504200057 53 275 3.0 6.0 0.00 0.00 0.00 79 1005.9
20260504194555 53 273 2.0 8.0 0.00 0.00 0.00 78 1005.8
20260504193056 53 273 4.0 8.0 0.00 0.00 0.00 78 1005.8
20260504191558 53 281 5.0 9.0 0.00 0.00 0.00 78 1005.7
20260504190057 54 260 3.0 10.0 0.00 0.00 0.00 77 1005.7
20260504184559 54 237 4.0 10.0 0.00 0.00 0.00 76 1005.6
20260504183103 55 246 4.0 10.0 0.00 0.00 0.00 75 1005.6
20260504181556 55 302 4.0 10.0 0.00 0.00 0.00 75 1005.4
20260504180113 56 281 6.0 12.0 0.00 0.00 0.00 74 1005.2
20260504174559 57 265 7.0 13.0 0.00 0.00 0.00 73 1005.1
20260504173108 57 247 7.0 14.0 0.00 0.00 0.00 72 1005.1
20260504171604 58 267 9.0 16.0 0.00 0.00 0.00 70 1004.7
20260504160106 64 246 9.0 17.0 0.00 0.00 0.00 66 1003.8
20260504081558 62 269 7.0 12.0 0.00 0.00 0.00 70 1006.6
20260504044557 56 297 0.0 2.0 0.00 0.00 0.00 84 1006.4